Location: Bernay
(48.6766°N, 2.9386°E)
Time: 20:39:51
(UTC+00:00)

USA 267 - Pass Details

Date: 12 January 2026
Orbit: 1101 x 1107 km, 123.0° (Epoch: 10 January)

Event Time Altitude Azimuth Distance (km) Brightness Sun altitude
Exits shadow 18:46:12 37° 125° (SE) 1,642 3.8 -24.0°
Maximum altitude 18:49:05 88° 212° (SSW) 1,109 3.2 -24.5°
Drops below altitude 10° 18:55:40 10° 304° (NW) 2,965 6.2 -25.6°
Sets 18:58:09 0° 305° (NW) 3,925 6.9 -26.0°
